Temperature
11 12 11 11 12 12 12 12 12 12 12 14 14 13 15 16 17 17 17 17 17 16 16 16 15 14 14 13 13 12 12 11 11 10 10 9 9 8 8 7 7 7 6 6
11 12 11 12 12 12 12 12 12 12 12 13 14 15 15 16 16 16 17 17 17 16 16 15 15 14 14 13 12 12 11 11 10 10 9 9 8 8 7 7 6 6 6 6
10 11 11 11 12 12 12 12 12 13 14 14 13 13 14 16 16 16 17 17 16 16 16 15 15 14 13 13 12 11 11 10 10 9 9 8 8 7 7 6 6 6 5 5
8 10 10 12 12 13 13 13 13 12 13 13 13 15 16 17 17 17 17 16 16 16 15 15 14 14 13 12 12 11 10 10 9 9 8 8 7 7 6 6 5 5 5 4
7 8 9 10 11 12 12 12 13 13 13 13 14 14 14 16 16 17 16 16 16 15 15 14 14 13 12 12 11 10 10 9 9 8 8 7 7 6 6 5 5 4 4 3
7 8 9 11 12 13 12 12 13 12 12 12 12 11 13 16 16 16 16 15 15 14 14 13 13 12 12 11 10 10 9 9 8 8 7 6 6 5 5 4 4 3 3 2
7 8 9 11 12 12 12 12 14 14 14 13 11 14 16 16 15 15 15 14 14 14 13 13 12 11 11 10 10 9 9 8 7 7 6 6 5 5 4 4 3 3 2 2
7 7 9 11 10 12 13 15 15 15 15 15 15 15 15 15 15 14 14 14 13 13 12 12 11 11 10 9 9 8 8 7 6 6 5 5 4 4 3 3 2 2 1 1
9 11 11 12 13 15 16 15 16 16 16 15 15 14 14 14 14 14 13 13 13 12 11 11 10 10 9 8 8 7 7 6 6 5 4 4 3 3 2 2 1 1 0 -0
8 9 11 13 14 15 15 16 16 16 16 15 15 15 14 14 14 13 13 12 12 11 10 10 9 8 8 7 7 6 6 5 5 4 4 3 2 2 2 1 0 -0 -1 -2
8 9 10 12 14 15 15 15 15 15 15 15 14 14 14 13 13 12 12 11 10 10 9 9 8 7 7 6 6 5 5 4 4 3 3 2 2 1 1 -0 -1 -2 -2 -3
10 10 10 12 15 15 15 15 14 14 14 14 14 14 13 13 12 11 11 10 9 9 8 7 7 6 6 5 5 4 4 3 3 2 2 1 1 0 -0 -1 -2 -2 -3 -3
12 13 13 14 14 14 14 14 14 14 13 13 13 13 12 12 11 10 10 9 9 8 7 6 6 5 5 4 4 4 3 3 2 1 1 0 -0 -1 -1 -2 -2 -3 -3 -4
12 12 12 13 13 13 13 13 13 13 12 12 12 11 11 10 10 9 9 8 7 7 6 5 5 4 4 3 3 3 2 1 1 0 -0 -1 -1 -2 -2 -3 -3 -3 -4 -4
11 12 12 12 12 12 13 12 12 12 11 11 11 10 10 9 9 8 7 7 6 6 5 4 4 4 3 3 2 2 1 1 0 -0 -1 -2 -2 -3 -3 -4 -4 -5 -5 -5
11 11 11 11 11 11 11 11 11 11 10 10 10 9 9 8 7 7 6 6 5 5 4 4 3 3 2 2 1 1 0 -0 -1 -1 -2 -2 -3 -4 -4 -5 -5 -6 -6 -6
9 9 9 10 10 10 10 10 10 10 9 9 8 8 7 6 6 5 5 4 4 4 3 3 2 2 1 1 0 -0 -1 -1 -2 -2 -3 -3 -4 -5 -5 -6 -6 -7 -7 -7
9 9 10 10 10 9 9 9 9 9 8 8 7 6 6 5 5 5 4 3 3 2 2 1 1 1 0 -0 -1 -1 -2 -2 -3 -3 -4 -5 -5 -6 -6 -7 -7 -8 -8 -8
8 8 8 8 9 9 8 8 8 7 7 6 6 5 5 4 4 3 3 2 2 1 1 0 -0 -0 -1 -1 -2 -2 -3 -3 -4 -4 -5 -6 -6 -6 -7 -7 -8 -8 -8 -8
6 7 7 7 7 7 7 7 6 6 5 5 5 4 3 3 3 2 1 1 1 0 -0 -1 -1 -2 -2 -2 -3 -3 -4 -4 -5 -5 -6 -6 -7 -7 -7 -8 -8 -9 -9 -9
5 5 5 5 5 5 5 5 5 4 4 3 3 3 2 2 1 1 0 -0 -1 -1 -2 -2 -2 -3 -3 -3 -4 -4 -5 -5 -6 -6 -7 -7 -7 -8 -8 -8 -9 -9 -9 -9
4 4 4 4 4 3 3 3 3 3 2 2 2 1 1 0 -0 -1 -1 -1 -2 -2 -3 -3 -3 -3 -4 -4 -5 -5 -6 -6 -6 -7 -7 -8 -8 -8 -8 -9 -9 -9 -10 -10
2 2 2 2 2 2 2 2 1 1 1 1 0 0 -0 -1 -1 -2 -2 -3 -3 -3 -4 -4 -4 -4 -5 -5 -5 -6 -6 -7 -7 -7 -8 -8 -8 -9 -9 -9 -9 -10 -10 -10
1 1 1 1 1 1 0 -0 -0 -0 -1 -1 -1 -1 -2 -2 -2 -3 -3 -4 -4 -4 -4 -4 -5 -5 -5 -6 -6 -6 -7 -7 -7 -8 -8 -8 -9 -9 -9 -9 -10 -10 -10 -10
-1 -0 -1 -1 -1 -1 -1 -1 -2 -2 -2 -2 -2 -3 -3 -3 -3 -4 -4 -4 -4 -5 -5 -5 -5 -6 -6 -6 -7 -7 -7 -8 -8 -8 -9 -9 -9 -9 -9 -10 -10 -10 -10 -10
-2 -2 -2 -2 -2 -2 -2 -3 -3 -3 -3 -3 -4 -4 -4 -4 -4 -5 -5 -5 -5 -6 -6 -6 -6 -7 -7 -7 -7 -8 -8 -8 -8 -8 -9 -9 -9 -10 -10 -10 -10 -10 -10 -10
-3 -3 -3 -3 -4 -4 -4 -4 -4 -4 -4 -4 -5 -5 -5 -5 -5 -5 -6 -6 -6 -6 -7 -7 -7 -7 -7 -8 -8 -8 -8 -8 -9 -9 -9 -9 -10 -10 -10 -10 -10 -10 -10 -11
Wind_Speed
7 6 7 10 12 14 15 15 14 14 15 14 12 10 9 8 8 7 7 8 8 8 7 6 6 5 6 5 5 6 6 7 7 6 6 6 6 6 6 6 7 7 7 6
7 7 8 9 13 16 18 17 17 14 16 13 10 8 9 10 9 9 9 9 8 8 7 7 7 6 6 5 5 5 6 6 5 5 5 5 5 5 5 5 5 5 6 6
7 5 4 11 15 17 14 14 15 21 23 10 8 11 12 11 10 11 11 10 9 8 8 8 8 7 7 6 5 5 5 5 4 5 5 5 4 4 5 5 5 5 6 6
3 4 11 11 8 13 15 16 18 16 13 12 14 13 10 10 11 11 10 9 9 8 7 6 5 5 5 5 5 5 5 4 4 4 4 4 4 4 5 4 5 5 6 6
5 7 10 9 7 11 13 15 16 18 16 11 7 4 7 9 10 11 10 8 8 7 6 5 6 6 5 5 5 5 5 5 5 5 5 4 4 4 3 3 4 4 5 5
6 7 10 10 7 7 7 12 12 14 16 12 8 6 10 8 8 8 6 6 6 5 5 5 5 6 6 5 5 5 5 5 4 4 5 5 4 3 3 3 4 4 4 5
8 8 10 10 6 8 8 11 7 11 13 11 12 12 7 6 6 6 6 5 6 6 5 6 5 7 6 5 6 5 4 3 3 3 3 3 3 2 2 2 2 3 4 4
8 9 12 7 8 11 10 4 4 6 9 10 11 8 6 7 7 7 6 5 6 5 5 4 5 7 6 5 4 3 4 3 3 2 2 2 2 1 2 2 2 3 3 4
12 12 7 8 11 10 6 6 6 6 7 8 8 7 7 7 7 7 7 6 5 6 5 3 4 6 6 4 4 4 4 3 2 2 1 2 2 2 1 2 2 3 3 5
7 10 9 9 9 8 8 9 8 7 7 7 8 8 8 7 6 6 6 6 5 6 6 4 3 4 4 4 4 5 4 3 2 2 1 1 1 2 2 2 3 4 4 5
10 10 8 10 11 11 9 7 6 5 6 8 8 7 7 7 7 6 6 5 6 6 6 5 4 3 4 4 5 5 4 3 2 2 2 1 1 2 3 4 4 5 5 5
12 10 9 11 11 10 10 9 8 7 5 5 7 8 7 7 6 6 6 5 6 6 5 5 4 4 3 4 5 5 3 2 2 2 1 1 1 3 4 6 8 10 10 9
12 9 10 9 8 9 10 9 8 8 8 6 5 6 7 5 5 6 6 6 7 6 6 5 5 4 3 4 4 4 3 3 2 2 1 1 2 2 4 6 7 9 10 12
10 7 8 9 9 8 8 8 6 5 5 5 5 5 5 5 5 6 6 6 6 6 6 5 5 3 3 4 4 3 3 2 1 2 2 2 2 3 3 5 6 5 7 11
10 10 10 7 6 5 5 5 5 5 4 4 5 6 7 7 7 6 5 5 6 6 5 5 4 3 3 4 4 3 2 2 1 2 2 2 2 3 4 5 6 6 5 7
9 8 7 7 8 7 6 7 7 7 6 6 5 6 6 6 6 6 6 6 6 5 5 4 3 3 3 3 3 2 2 2 2 1 1 2 3 3 4 5 5 6 6 6
9 10 9 8 9 8 8 7 8 8 7 7 7 7 7 8 7 6 5 4 4 4 3 3 3 2 2 3 3 2 2 2 3 2 2 3 4 4 5 5 6 7 7 9
10 11 10 10 9 8 7 6 6 7 7 7 8 8 8 8 8 6 5 5 4 3 2 2 2 2 2 2 2 2 2 2 2 2 3 3 4 4 5 5 6 7 7 9
8 8 7 7 8 8 7 6 6 6 7 8 9 8 7 6 7 6 5 5 5 3 1 1 2 3 2 1 0 1 1 2 2 3 3 6 6 4 5 6 7 7 7 8
5 4 5 5 5 6 6 6 7 7 7 8 9 8 7 6 6 6 5 3 2 2 2 1 2 2 1 1 1 1 2 2 3 4 4 4 5 5 6 6 7 7 7 7
5 5 6 7 7 6 7 8 9 8 7 8 8 8 7 6 5 5 5 2 0 1 2 1 1 1 1 2 2 1 2 3 3 4 4 5 5 6 6 7 7 8 8 8
5 6 8 8 9 8 6 7 8 9 8 8 8 8 7 6 4 4 2 2 2 1 1 1 1 2 3 3 0 1 2 3 4 4 5 5 6 6 7 7 8 8 8 8
6 7 8 9 9 9 8 8 7 8 7 7 7 7 6 4 3 3 1 1 1 0 1 0 2 4 4 2 1 2 3 4 4 5 5 6 6 7 7 8 8 8 8 8
8 8 8 8 9 10 9 7 7 6 7 6 5 5 5 4 2 2 2 1 0 1 1 2 4 5 4 1 2 3 4 4 5 6 6 6 6 7 7 8 8 8 9 10
8 8 8 9 8 7 7 7 8 7 7 5 5 4 3 2 2 2 1 1 1 2 1 2 4 5 3 2 3 4 4 5 6 6 6 6 7 7 8 8 8 9 9 10
7 7 6 6 6 5 5 5 5 4 4 4 3 3 3 3 3 2 1 1 1 2 2 2 3 4 3 3 4 5 5 6 7 7 7 7 8 9 9 9 10 10 10 10
7 7 6 6 6 5 5 4 4 4 3 3 3 2 2 2 2 2 1 1 1 2 2 2 3 3 4 4 5 6 6 6 7 7 7 7 8 8 9 10 10 10 10 11
Wind_Direction
237 224 191 207 210 202 206 211 218 233 234 241 243 241 244 242 237 231 232 228 222 220 222 221 219 216 211 211 202 190 190 201 212 211 205 202 201 201 198 198 202 200 201 208
238 233 220 230 221 213 218 222 230 244 253 243 242 242 244 239 228 227 230 229 227 222 217 215 213 210 206 207 201 184 191 205 205 196 194 198 199 195 193 197 198 196 205 210
231 240 256 246 217 212 216 218 215 233 244 243 236 236 236 235 225 223 226 226 221 216 213 212 208 200 199 199 184 179 191 199 196 191 195 199 193 189 197 201 201 209 216 218
186 172 231 242 213 209 218 230 223 230 239 231 230 236 234 224 217 222 221 219 216 209 208 208 198 189 181 173 172 178 187 195 194 188 193 190 184 197 205 202 207 216 224 227
172 214 261 277 234 202 209 240 230 231 239 238 227 239 263 230 214 216 214 209 205 200 196 188 188 179 164 168 170 178 193 199 195 186 186 186 196 208 209 206 219 223 226 229
172 200 234 241 230 193 177 252 239 219 230 225 169 218 251 225 207 209 199 190 187 178 170 177 186 163 161 175 179 197 200 196 189 183 184 194 204 209 210 211 226 231 242 239
191 217 252 246 222 136 183 237 234 206 214 200 196 218 226 185 189 190 188 185 173 166 174 189 175 158 169 181 201 203 181 169 169 175 183 191 191 196 203 217 230 243 253 258
186 212 241 222 160 187 218 228 210 205 208 203 212 219 208 197 194 186 182 181 171 165 176 180 165 160 172 196 199 160 148 151 160 166 171 161 167 195 201 205 234 254 263 273
199 218 227 197 207 224 204 206 214 207 213 199 202 210 207 203 198 194 188 182 172 166 166 175 171 164 176 194 161 144 142 154 159 152 154 162 176 197 220 220 237 259 261 270
224 242 237 233 237 243 222 217 218 208 203 192 200 203 202 199 195 192 187 181 169 160 166 181 178 166 173 166 149 142 148 155 152 152 165 185 197 202 216 231 245 259 265 271
231 246 250 247 232 232 233 232 227 220 209 199 193 199 197 196 196 192 185 176 168 170 174 178 165 155 154 151 141 140 146 153 157 169 184 214 239 235 238 234 242 257 255 254
225 217 211 234 231 221 216 220 214 209 219 213 196 197 191 192 191 181 176 169 166 168 166 166 158 153 152 150 144 146 154 166 177 187 201 219 260 300 291 283 287 288 286 284
229 226 221 236 228 214 214 218 212 205 206 209 205 186 177 179 177 169 167 168 172 170 163 157 152 153 158 151 146 152 166 178 185 195 215 240 258 276 299 307 301 299 297 298
232 216 228 230 227 218 213 213 204 204 205 193 182 166 162 161 159 166 176 174 157 147 147 149 149 160 161 145 140 147 158 190 206 207 220 235 250 263 273 286 299 298 298 301
228 216 217 217 214 207 198 183 177 188 181 173 163 160 160 162 168 169 154 138 132 134 143 147 153 169 152 139 141 153 165 191 205 210 223 243 261 271 274 277 281 290 295 299
226 217 209 207 211 206 190 187 190 196 186 177 169 167 161 152 143 134 133 138 143 156 161 157 167 172 148 138 143 158 185 245 270 234 233 265 273 273 276 277 281 285 286 289
210 218 214 213 213 208 202 200 195 190 182 176 171 152 137 130 127 128 128 128 132 142 153 159 165 158 147 149 158 178 191 233 286 291 259 263 266 267 271 275 279 282 282 289
218 218 212 205 199 196 197 193 182 174 174 168 146 139 141 147 150 146 134 118 107 99 114 146 147 136 137 146 158 179 198 219 243 257 267 270 274 270 273 277 279 283 286 292
216 211 203 194 187 181 179 172 163 156 146 141 141 144 141 136 133 132 129 127 131 137 173 159 129 113 131 178 264 188 211 246 271 275 274 286 294 283 279 278 279 281 285 290
185 172 161 150 141 143 146 138 131 128 130 132 129 125 123 125 127 126 121 119 153 176 171 159 125 130 161 218 281 205 220 246 264 276 280 277 278 279 278 279 280 282 284 285
149 133 124 119 110 106 117 123 125 125 122 124 128 131 129 124 122 123 121 114 115 134 136 126 109 177 231 253 278 222 240 258 267 271 276 278 280 282 282 282 283 286 286 285
111 111 111 109 106 97 91 99 111 116 115 112 113 117 119 117 112 102 108 152 164 134 75 130 205 265 281 300 249 245 262 270 274 274 273 275 277 280 282 283 283 285 284 282
98 102 103 104 106 101 89 88 96 107 112 116 120 123 123 124 125 124 108 120 136 114 41 229 284 298 312 339 289 276 277 278 278 277 275 275 275 276 279 282 282 282 282 282
94 96 97 98 100 99 94 88 88 92 96 98 101 108 113 107 83 83 124 134 44 7 20 294 309 316 332 346 293 284 281 280 278 276 276 276 276 277 277 279 281 281 280 281
93 96 98 100 98 100 103 99 93 91 89 88 84 81 80 97 121 121 113 122 75 21 11 320 321 327 332 299 289 284 282 279 279 281 278 281 281 281 280 280 280 281 282 281
89 90 88 89 97 103 103 100 98 96 96 93 81 75 76 80 95 100 92 76 50 353 346 320 312 314 306 293 289 287 284 288 294 292 283 282 281 282 282 281 280 280 280 280
84 85 86 83 78 82 88 91 96 96 97 104 94 83 83 80 78 74 60 29 359 339 320 311 306 301 297 294 292 290 288 286 285 285 285 284 283 283 283 282 283 282 282 281
Height
1466 1463 1466 1467 1467 1469 1472 1471 1475 1468 1465 1457 1453 1453 1452 1452 1452 1452 1453 1453 1453 1453 1453 1453 1454 1454 1455 1455 1456 1456 1456 1456 1457 1458 1459 1460 1461 1461 1462 1463 1464 1464 1465 1465
1464 1461 1461 1461 1459 1460 1461 1461 1461 1460 1455 1445 1446 1448 1448 1448 1448 1448 1448 1448 1449 1449 1449 1449 1450 1450 1450 1451 1451 1452 1452 1452 1453 1454 1454 1455 1455 1456 1457 1457 1458 1458 1458 1458
1466 1461 1460 1460 1450 1450 1451 1449 1451 1450 1440 1440 1443 1442 1442 1442 1442 1442 1443 1444 1444 1444 1445 1445 1446 1446 1446 1446 1447 1447 1448 1448 1448 1449 1450 1450 1451 1451 1451 1452 1452 1452 1452 1452
1466 1464 1467 1442 1435 1436 1438 1437 1436 1434 1431 1433 1434 1434 1435 1436 1437 1437 1438 1439 1439 1440 1441 1441 1442 1442 1442 1442 1443 1443 1443 1444 1444 1445 1445 1445 1446 1446 1446 1446 1446 1446 1446 1445
1465 1463 1453 1440 1431 1431 1434 1431 1425 1426 1425 1426 1428 1431 1430 1430 1431 1432 1433 1434 1435 1436 1436 1437 1438 1438 1438 1438 1438 1439 1439 1439 1440 1440 1440 1441 1441 1441 1441 1441 1440 1440 1439 1439
1459 1458 1450 1431 1422 1420 1427 1429 1416 1417 1418 1420 1426 1432 1424 1423 1425 1426 1428 1429 1430 1431 1432 1433 1433 1434 1434 1434 1434 1434 1435 1435 1436 1436 1436 1436 1436 1436 1435 1435 1434 1434 1433 1432
1449 1448 1436 1421 1417 1420 1432 1420 1408 1408 1409 1413 1417 1416 1416 1419 1420 1422 1423 1425 1426 1426 1427 1428 1429 1429 1429 1429 1430 1430 1431 1431 1431 1432 1431 1431 1431 1431 1430 1429 1429 1428 1427 1426
1440 1443 1431 1412 1414 1415 1409 1404 1404 1404 1405 1407 1408 1410 1412 1414 1415 1417 1418 1420 1420 1421 1422 1423 1424 1424 1424 1425 1425 1426 1426 1427 1427 1427 1427 1426 1426 1425 1425 1424 1422 1421 1420 1419
1416 1411 1403 1402 1401 1400 1401 1401 1401 1401 1402 1403 1404 1406 1407 1409 1410 1412 1413 1414 1415 1416 1417 1418 1419 1419 1420 1420 1421 1421 1422 1422 1422 1422 1422 1421 1421 1420 1419 1418 1416 1415 1413 1412
1407 1401 1397 1396 1395 1396 1397 1397 1397 1398 1399 1400 1400 1401 1403 1404 1405 1407 1408 1409 1410 1411 1412 1413 1414 1415 1415 1416 1416 1417 1417 1417 1417 1417 1417 1416 1416 1415 1413 1412 1411 1409 1407 1405
1397 1392 1392 1389 1390 1391 1392 1393 1393 1394 1395 1396 1396 1397 1398 1399 1401 1402 1403 1404 1405 1406 1407 1408 1409 1410 1411 1412 1412 1412 1412 1412 1412 1412 1411 1411 1410 1409 1408 1407 1406 1404 1402 1400
1386 1383 1385 1382 1383 1385 1386 1387 1388 1389 1390 1391 1392 1393 1394 1395 1396 1397 1398 1399 1400 1401 1403 1404 1405 1406 1407 1408 1408 1408 1408 1407 1407 1407 1406 1405 1404 1403 1402 1402 1400 1398 1396 1395
1373 1375 1376 1376 1377 1379 1380 1381 1383 1384 1385 1386 1387 1388 1389 1390 1391 1392 1394 1395 1396 1397 1398 1400 1401 1402 1403 1403 1404 1403 1403 1403 1402 1402 1401 1400 1398 1397 1395 1394 1394 1392 1390 1388
1368 1369 1369 1370 1371 1373 1374 1375 1377 1378 1379 1380 1382 1383 1384 1385 1386 1388 1389 1390 1392 1393 1394 1396 1397 1398 1398 1399 1399 1399 1399 1398 1397 1396 1395 1394 1393 1391 1389 1387 1385 1383 1383 1381
1361 1362 1362 1363 1365 1367 1368 1369 1371 1372 1373 1375 1376 1377 1379 1380 1381 1383 1385 1386 1388 1389 1390 1391 1392 1393 1394 1394 1394 1394 1394 1393 1392 1391 1390 1389 1388 1386 1384 1382 1379 1377 1375 1373
1355 1356 1357 1357 1358 1360 1361 1363 1364 1366 1367 1369 1371 1372 1374 1376 1377 1379 1381 1382 1384 1385 1386 1387 1388 1389 1390 1390 1390 1389 1389 1388 1387 1386 1385 1383 1382 1380 1378 1376 1373 1371 1368 1366
1348 1348 1349 1350 1352 1353 1355 1357 1358 1360 1362 1364 1366 1368 1370 1371 1373 1375 1377 1379 1380 1382 1383 1384 1384 1385 1385 1385 1385 1384 1384 1383 1382 1381 1379 1378 1376 1374 1372 1370 1367 1365 1362 1360
1339 1340 1342 1343 1345 1347 1349 1351 1353 1355 1357 1359 1361 1364 1365 1367 1369 1371 1373 1375 1377 1378 1379 1380 1380 1381 1381 1381 1380 1380 1379 1378 1376 1375 1373 1372 1370 1368 1366 1364 1361 1358 1355 1353
1332 1334 1335 1337 1339 1341 1344 1346 1348 1351 1353 1355 1358 1360 1362 1364 1366 1368 1370 1371 1372 1374 1375 1376 1376 1377 1376 1376 1376 1375 1374 1373 1371 1370 1368 1366 1364 1362 1360 1358 1355 1352 1349 1346
1326 1328 1330 1332 1334 1337 1339 1342 1345 1347 1350 1352 1354 1357 1359 1361 1363 1365 1367 1369 1370 1371 1372 1372 1372 1372 1372 1372 1371 1370 1369 1367 1366 1364 1362 1360 1358 1356 1354 1351 1348 1346 1343 1340
1322 1324 1326 1329 1331 1334 1337 1339 1342 1345 1347 1350 1352 1354 1357 1359 1361 1362 1364 1365 1367 1368 1369 1369 1369 1368 1368 1367 1366 1365 1364 1362 1360 1358 1356 1354 1352 1350 1347 1344 1342 1339 1336 1333
1321 1323 1325 1328 1330 1333 1336 1338 1341 1343 1346 1348 1351 1353 1355 1356 1358 1360 1361 1363 1364 1365 1365 1365 1365 1365 1364 1363 1361 1360 1359 1357 1355 1353 1351 1348 1346 1343 1341 1338 1335 1332 1329 1326
1321 1323 1326 1328 1330 1332 1335 1338 1341 1343 1345 1347 1349 1351 1353 1354 1356 1357 1358 1360 1361 1361 1361 1361 1361 1361 1360 1358 1357 1355 1353 1352 1350 1347 1345 1343 1340 1337 1334 1331 1328 1325 1321 1318
1322 1324 1326 1328 1330 1333 1335 1338 1340 1343 1345 1347 1349 1350 1352 1352 1354 1355 1356 1357 1358 1358 1358 1358 1357 1356 1355 1353 1352 1350 1348 1346 1344 1342 1339 1337 1334 1331 1328 1324 1321 1318 1314 1311
1324 1325 1327 1329 1331 1334 1336 1338 1340 1342 1344 1346 1348 1349 1351 1351 1352 1353 1354 1354 1354 1354 1354 1354 1353 1352 1350 1349 1347 1345 1343 1341 1338 1336 1333 1330 1327 1324 1321 1318 1314 1310 1307 1303
1326 1327 1329 1331 1333 1335 1337 1339 1340 1342 1344 1345 1347 1348 1349 1350 1351 1351 1351 1351 1351 1351 1350 1349 1348 1347 1345 1344 1342 1340 1337 1335 1332 1330 1327 1324 1320 1317 1314 1310 1307 1303 1299 1296
1328 1330 1331 1333 1335 1337 1338 1340 1341 1343 1344 1345 1345 1347 1347 1348 1349 1349 1349 1348 1348 1347 1346 1345 1344 1342 1341 1339 1337 1334 1332 1329 1326 1323 1320 1317 1314 1310 1306 1303 1299 1295 1292 1288